Hourly Weather Roundup
Issued by NWS Central Illinois

Home | Current Version | Previous Version | Text Only | Print | Product List | Glossary On
Versions: 1 2 3 4 5 6 7 8 9 10 11 12 13 14 15 16 17 18 19 20 21 22 23 24 25 26 27 28 29 30 31 32 33 34 35 36 37 38 39 40 41 42 43 44 45 46 47 48 49 50
000
NZUS43 KILX 111910
HWRILX

Area Weather Roundup
National Weather Service Lincoln IL
100 PM CST MON DEC 11 2017

NOTE:  "FAIR" indicates few or no clouds below 12,000 feet, with
       no sigificant weather and/or obstructions to visibility.


CITY           SKY/WX    TMP DP  RH WIND       PRES   REMARKS
Bloomington    CLOUDY    49  28  44 SW22G28   29.64F
Champaign      PTSUNNY   49  28  44 S21G28    29.66F
Danville       CLOUDY    45  28  51 S13       29.66F
Decatur        NOT AVBL
Effingham      CLOUDY    56  31  38 S18G25    29.72F
Flora          MOSUNNY   58  31  35 SW23      29.73F
Galesburg      SUNNY     44  28  53 W24       29.67S WCI  35
Jacksonville   CLOUDY    50  23  34 W16G28    29.69F
Lacon          MOSUNNY   45  27  49 SW10      29.63F
Lawrenceville  SUNNY     52  32  46 S23       29.76F
Litchfield     CLOUDY    51  24  34 W21       29.72F
$$


CITY           SKY/WX    TMP DP  RH WIND       PRES   REMARKS
Lincoln        CLOUDY    50  28  42 SW9G16    29.64F
Macomb         SUNNY     49  25  39 W29G37    29.70R
Mattoon        CLOUDY    49  31  49 S17G25    29.68F
Mt Carmel AP   NOT AVBL
Olney-Noble AP SUNNY     55  26  32 S14G22    29.74F
Paris AP       MOSUNNY   48  30  50 S18G24    29.70F
Peoria         SUNNY     47  26  44 W14G23    29.65F
Pontiac        MOSUNNY   47  29  51 S9        29.65F
Rantoul        PTSUNNY   48  31  50 S15       29.66F
Robinson       SUNNY     50  31  48 S22G28    29.74F
Springfield    MOSUNNY   51  26  37 W24       29.68F
Taylorville    CLOUDY    51  25  36 W22G29    29.70F
$$

...REGIONAL REPORTS...


CITY           SKY/WX    TMP DP  RH WIND       PRES   REMARKS
Chicago O`Hare CLOUDY    37  25  61 S8        29.70F WCI  31
Kankakee       CLOUDY    42  27  56 SE12      29.69F
Moline         CLOUDY    44  27  51 W14       29.65S
Mount Sterling SUNNY     48  24  38 W20G32    29.71R
Mount Vernon   SUNNY     57  30  35 SW26G35   29.75F
Pittsfield     CLOUDY    51  23  34 W22G31    29.73S
Quincy         SUNNY     50  24  36 W25G37    29.73S
Rockford       CLOUDY    36  26  67 SE6       29.69F WCI  31
$$


CITY           SKY/WX    TMP DP  RH WIND       PRES   REMARKS
Burlington     MOSUNNY   47  26  44 NW22G33   29.70R
Cedar Rapids   PTSUNNY   44  27  51 NW22      29.70R
Des Moines     LGT RAIN  44  32  62 NW24G37   29.83R WCI  35
Kirksville     CLOUDY    50  30  46 NW26G45   29.81R
Ottumwa        LGT RAIN  45  31  58 NW24G38   29.77R
St Louis       CLOUDY    56  21  25 W23G30    29.77F
$$


CITY           SKY/WX    TMP DP  RH WIND       PRES   REMARKS
Terre Haute    SUNNY     48  28  46 S22G29    29.72F
Evansville     MOSUNNY   54  31  41 S18G30    29.81F
Indianapolis   PTSUNNY   44  27  51 S16       29.77F
Lafayette      MOSUNNY   44  27  51 S7        29.73F
Madison        CLOUDY    31  25  78 CALM      29.69F
Milwaukee      CLOUDY    33  25  72 S6        29.71F WCI  28
$$






USA.gov is the U.S. government's official web portal to all federal, state and local government web resources and services.